#timestamp,LO_Frequency,Hit,StdDev 
1560823215.0,286046998.1,N
1560823215.9,286046998.1,N
1560823235.7,286047000.5,N
1560823255.6,286047003.2,N
1560823275.4,286047003.7,N
1560823295.3,286047003.5,N
1560823315.1,286047007.1,N
1560823316.0,286047007.1,N
1560823335.8,286047007.5,N
1560823355.7,286047007.6,N
1560823375.5,286047005.8,N
1560823395.4,286047003.5,N
1560823415.2,286047005.5,N
1560823435.0,286047005.6,N
1560823435.9,286047005.6,N
1560823455.8,286047006.0,N
1560823475.6,286047011.9,Y
1560823495.5,286047003.1,P
1560823515.3,286047003.7,P
1560823535.1,286047002.1,P
1560823555.9,286047005.8,Y
1560823575.7,286047001.6,P
1560823595.6,286047003.4,P
1560823615.5,286047007.1,P
1560823635.4,286047009.7,Y
1560823655.2,286047007.1,P
1560823675.1,286047009.4,P
1560823676.0,286047009.4,P
1560823695.8,286047011.9,Y
1560823715.6,286047009.2,P
1560823735.5,286047013.3,P
1560823755.3,286047013.6,P
1560823775.2,286047009.7,Y
1560823795.9,286046997.1,P
1560823815.7,286046999.9,N
1560823835.6,286047001.0,N
1560823855.4,286046999.8,N
1560823875.2,286047009.0,N
1560823895.1,286047007.0,N
1560823896.0,286047007.0,N
1560823915.8,286047010.2,N
1560823935.7,286047011.8,N
1560823955.5,286047007.9,N
1560823975.3,286047012.3,N
1560823995.2,286047012.0,N
1560824015.0,286047009.5,N
1560824015.9,286047009.5,N
1560824035.7,286047009.5,N
1560824055.6,286047010.4,N
1560824075.4,286047008.1,N
1560824095.3,286047009.3,N
1560824115.1,286047010.3,N
1560824135.8,286047006.9,N
1560824155.7,286047008.3,N
1560824175.5,286047006.2,N
1560824195.4,286047005.4,N
1560824215.2,286047004.1,N
1560824235.6,286047003.1,N
1560824255.4,286047005.1,N
1560824275.2,286047006.9,N
1560824295.1,286047006.7,N
1560824315.3,286047008.4,N
1560824335.1,286047010.7,N
1560824355.8,286047007.1,N
1560824375.7,286047009.1,N
1560824395.5,286047004.7,N
1560824415.4,286047008.9,Y
1560824435.2,286047002.3,P
1560824455.0,286047002.3,N
1560824455.9,286047002.3,N
1560824475.8,286047002.2,N
1560824495.6,286047001.2,N
1560824515.5,286047006.0,N
1560824535.3,286047000.5,N
1560824555.1,286046999.3,N
1560824575.9,286046996.8,N
1560824595.7,286046993.8,N
1560824615.5,286046993.3,N
1560824635.4,286046994.0,N
1560824655.2,286046995.1,N
1560824675.1,286046996.0,N
1560824676.0,286046996.0,N
1560824695.8,286046992.1,N
1560824715.6,286046991.4,N
1560824735.5,286046988.7,N
1560824755.3,286046987.7,N
1560824775.1,286046989.8,N
1560824795.9,286046988.7,N
1560824815.7,286046989.3,N
1560824835.4,286046991.0,N
1560824855.2,286046988.9,N
1560824875.1,286046989.0,N
1560824876.0,286046989.0,N
1560824895.8,286046989.2,N
1560824915.6,286046990.2,N
1560824935.5,286046989.3,N
1560824955.3,286046991.5,N
1560824975.2,286046992.5,N
1560824995.9,286046988.7,N
1560825015.7,286046989.1,N
1560825035.6,286046990.6,N
1560825055.4,286046988.9,N
1560825075.2,286046991.5,N
1560825095.1,286046992.1,N
1560825096.0,286046992.1,N
1560825115.8,286046995.9,N
1560825135.7,286046991.7,Y
1560825155.5,286047005.1,P
1560825175.3,286047008.5,N
1560825195.2,286047013.6,N
1560825215.0,286047010.1,N
1560825215.9,286047010.1,N
1560825235.8,286047012.3,N
1560825255.6,286047012.4,N
1560825275.4,286047010.2,N
1560825295.3,286047012.3,N
1560825315.1,286047012.2,N
1560825335.9,286047009.6,N
1560825355.7,286047015.4,N
1560825375.5,286047015.0,N
1560825395.4,286047011.3,N
1560825415.2,286047015.0,N
1560825435.0,286047015.8,N
1560825435.9,286047015.8,N
1560825455.8,286047017.6,Y
1560825475.6,286047012.3,P
1560825495.5,286047010.4,P
1560825515.3,286047012.3,P
1560825535.1,286047006.3,Y
1560825555.9,286046993.2,P
1560825575.7,286046992.6,N
1560825595.6,286046996.0,N
1560825615.4,286046997.9,N
1560825635.2,286046999.5,N
1560825655.1,286046998.6,N
1560825656.0,286046998.6,N
1560825675.8,286046995.3,N
1560825695.6,286047000.5,N
1560825715.5,286047001.5,N
1560825735.3,286047001.0,N
1560825755.2,286046998.4,N
1560825775.9,286046996.6,N
1560825795.7,286047004.3,N
1560825815.6,286047009.8,N
1560825835.4,286047009.9,N
1560825855.3,286047006.4,N
1560825875.1,286047011.7,N
1560825895.8,286047012.0,N
1560825915.7,286047015.1,N
1560825935.5,286047011.4,N
1560825955.4,286047011.6,N
1560825975.2,286047011.8,N
1560825995.0,286047009.6,N
1560825995.9,286047009.6,N
1560826015.8,286047008.0,N
1560826035.6,286047008.3,N
1560826055.5,286047012.3,N
1560826075.3,286047010.9,N
1560826095.1,286047011.8,N
1560826115.9,286047011.8,N
1560826135.7,286047015.4,N
1560826155.5,286047014.2,N
1560826175.4,286047020.4,Y
1560826195.2,286047014.3,P
1560826215.1,286047011.7,P
1560826216.0,286047011.7,P
1560826235.8,286047013.9,Y
1560826255.6,286047001.0,P
1560826275.5,286047000.1,N
1560826295.3,286047005.6,N
1560826315.2,286047007.9,N
1560826335.9,286047006.6,N
1560826355.7,286047007.0,N
1560826375.6,286047009.3,N
1560826395.4,286047011.7,Y
1560826415.2,286047006.3,P
1560826435.1,286047006.1,P
1560826436.0,286047006.1,P
1560826455.8,286047006.6,Y
1560826475.7,286046999.9,P
1560826495.5,286047003.4,N
1560826515.3,286047007.5,N
1560826535.2,286047007.5,N
1560826555.0,286047003.4,N
1560826555.9,286047003.4,N
1560826575.8,286047003.2,N
1560826595.6,286047001.7,N
1560826615.4,286046999.7,N
1560826635.3,286046996.8,N
1560826655.1,286046999.5,N
1560826675.8,286046999.3,N
1560826695.7,286047000.6,N
1560826715.5,286047002.6,N
1560826735.4,286047006.0,N
1560826755.2,286047007.3,N
1560826775.0,286047005.2,N
1560826775.9,286047005.2,N
1560826795.8,286047003.1,N
